Location: Peebles
(55.6412°N, 3.1714°W)
Time: 23:27:19
(UTC+00:00)

Kosmos-400 - Visible Passes

Search period start: 28 November 2023 00:00
Search period end: 08 December 2023 00:00
Orbit: 980 x 1003 km, 65.8° (Epoch: 28 November)

Date Brightness Start Highest point End Pass type
(mag) Time Alt. Az. Time Alt. Az. Time Alt. Az.
28 Nov 9.4 18:03:56 10° SSE 18:09:13 27° ESE 18:09:40 27° ESE visible
28 Nov 9.1 19:50:03 10° SW 19:54:42 50° SW 19:54:42 50° SW visible
28 Nov 11.1 21:39:08 10° W 21:39:44 13° W 21:39:44 13° W visible
29 Nov 10.3 16:51:26 10° ESE 16:52:55 11° E 16:54:23 10° E visible
29 Nov 8.8 18:33:15 10° S 18:39:24 46° ESE 18:40:01 44° ESE visible
29 Nov 9.6 20:20:52 10° WSW 20:25:02 40° W 20:25:02 40° W visible
30 Nov 9.8 17:18:03 10° SSE 17:22:42 21° ESE 17:25:15 17° ENE visible
30 Nov 8.4 19:03:19 10° SSW 19:09:48 74° SE 19:10:17 71° E visible
30 Nov 10.2 20:52:02 10° W 20:55:17 29° W 20:55:17 29° W visible
01 Dec 9.2 17:46:56 10° S 17:52:45 36° ESE 17:55:26 26° ENE visible
01 Dec 8.6 19:33:56 10° SW 19:40:27 75° NW 19:40:27 75° NW visible
01 Dec 10.7 21:23:24 10° W 21:25:27 20° WNW 21:25:27 20° WNW visible
02 Dec 10.1 16:32:30 10° SE 16:36:14 16° ESE 16:39:59 10° ENE visible
02 Dec 8.6 18:16:41 10° SSW 18:23:04 60° SE 18:25:33 37° ENE visible
02 Dec 9.2 20:04:57 10° WSW 20:10:33 50° NW 20:10:33 50° NW visible
02 Dec 11.1 21:54:47 10° WNW 21:55:33 13° WNW 21:55:33 13° WNW visible
03 Dec 9.5 17:00:45 10° S 17:06:11 29° ESE 17:10:36 14° ENE visible
03 Dec 8.5 18:47:05 10° SW 18:53:37 88° NW 18:55:35 49° NE visible
03 Dec 9.9 20:36:16 10° W 20:40:36 34° NW 20:40:36 34° NW visible
04 Dec 8.9 17:30:10 10° SSW 17:36:22 48° ESE 17:40:35 21° ENE visible
04 Dec 8.9 19:17:56 10° WSW 19:24:24 61° NW 19:25:36 53° N visible
04 Dec 10.5 21:07:39 10° WNW 21:10:35 24° NW 21:10:35 24° NW visible
05 Dec 8.5 18:00:18 10° SW 18:06:49 78° SE 18:10:32 28° NE visible
05 Dec 9.3 19:49:07 10° W 19:55:23 46° NNW 19:55:32 45° NNW visible
05 Dec 10.9 21:38:59 10° WNW 21:40:32 17° NW 21:40:32 17° NW visible
06 Dec 9.2 16:43:48 10° S 16:49:44 39° ESE 16:55:28 11° NE visible
06 Dec 8.7 18:30:59 10° SW 18:37:30 72° NW 18:40:27 35° NE visible
06 Dec 9.8 20:20:30 10° W 20:25:27 35° NW 20:25:27 35° NW visible
06 Dec 11.2 22:10:08 10° NW 22:10:26 11° NW 22:10:26 11° NW visible
07 Dec 8.7 17:13:39 10° SSW 17:20:04 64° SE 17:25:21 16° NE visible
07 Dec 9.1 19:02:03 10° WSW 19:08:24 51° NNW 19:10:20 39° NNE visible
07 Dec 10.3 20:51:53 10° WNW 20:55:20 26° NW 20:55:20 26° NW visible
